Menu Close Menu
Station Historical Data
Daily Summary for August 24, 2017 Units:  English    Metric   Both
« Previous Day
Next Day »
Daily Weekly Monthly Yearly Custom
  High: Low: Average:
Temperature: 88.0 °F 64.3 °F 74.8 °F
Dew Point: 66.6 °F 58.5 °F 62.6 °F
Humidity: 88% 39% 68%
Wind Speed: 1.0mph 0.0mph 0.1mph
Wind Gust: 5.0mph - -
Wind- - SSE
Pressure: 29.97 in 29.89 in -
Precipitation: 0.00 in    
Historical Graphs
 
 
Tabular Data for August 24, 2017
Time Temperature Dew Point Pressure Wind Wind Speed Wind Gust Humidity Rainfall Rate (Hourly) solar Conditions
00:00 72.3 °F 63.9 °F 29.91 in Calm     75% 0.00 in WeatherDisplay:10.37 W/m2 CLR
00:05 72.2 °F 64.2 °F 29.91 in Calm     76% 0.00 in WeatherDisplay:10.37 W/m2 CLR
00:10 72.1 °F 64.1 °F 29.91 in Calm     76% 0.00 in WeatherDisplay:10.37 W/m2 CLR
00:15 72.0 °F 64.0 °F 29.91 in Calm     76% 0.00 in WeatherDisplay:10.37 W/m2 CLR
00:20 71.8 °F 64.2 °F 29.91 in Calm     77% 0.00 in WeatherDisplay:10.37 W/m2 CLR
00:25 71.7 °F 63.7 °F 29.91 in Calm     76% 0.00 in WeatherDisplay:10.37 W/m2 CLR
00:30 71.6 °F 63.6 °F 29.91 in Calm     76% 0.00 in WeatherDisplay:10.37 W/m2 CLR
00:35 71.5 °F 63.5 °F 29.91 in Calm   1.0 mph 76% 0.00 in WeatherDisplay:10.37 W/m2 CLR
00:40 71.4 °F 63.4 °F 29.91 in Calm     76% 0.00 in WeatherDisplay:10.37 W/m2 CLR
00:45 71.2 °F 63.2 °F 29.91 in Calm     76% 0.00 in WeatherDisplay:10.37 W/m2 CLR
00:50 71.1 °F 63.1 °F 29.91 in Calm     76% 0.00 in WeatherDisplay:10.37 W/m2 CLR
00:55 70.9 °F 63.3 °F 29.91 in Calm     77% 0.00 in WeatherDisplay:10.37 W/m2 CLR
01:00 70.7 °F 63.5 °F 29.91 in Calm     78% 0.00 in WeatherDisplay:10.37 W/m2 CLR
01:05 70.6 °F 63.4 °F 29.91 in Calm     78% 0.00 in WeatherDisplay:10.37 W/m2 CLR
01:10 70.4 °F 62.8 °F 29.91 in Calm     77% 0.00 in WeatherDisplay:10.37 W/m2 CLR
01:15 70.2 °F 63.0 °F 29.91 in Calm     78% 0.00 in WeatherDisplay:10.37 W/m2 CLR
01:20 70.1 °F 62.9 °F 29.91 in Calm     78% 0.00 in WeatherDisplay:10.37 W/m2 CLR
01:25 69.9 °F 62.7 °F 29.91 in Calm     78% 0.00 in WeatherDisplay:10.37 W/m2 CLR
01:30 69.8 °F 62.6 °F 29.91 in Calm     78% 0.00 in WeatherDisplay:10.37 W/m2 CLR
01:35 69.7 °F 62.5 °F 29.91 in Calm     78% 0.00 in WeatherDisplay:10.37 W/m2 CLR
01:40 69.6 °F 62.4 °F 29.91 in Calm     78% 0.00 in WeatherDisplay:10.37 W/m2 CLR
01:45 69.4 °F 62.6 °F 29.91 in Calm     79% 0.00 in WeatherDisplay:10.37 W/m2 CLR
01:50 69.3 °F 62.5 °F 29.91 in Calm     79% 0.00 in WeatherDisplay:10.37 W/m2 CLR
01:55 69.1 °F 62.3 °F 29.91 in Calm     79% 0.00 in WeatherDisplay:10.37 W/m2 CLR
02:00 68.9 °F 62.1 °F 29.91 in Calm     79% 0.00 in WeatherDisplay:10.37 W/m2 CLR
02:10 68.8 °F 62.4 °F 29.91 in Calm     80% 0.00 in WeatherDisplay:10.37 W/m2 CLR
02:15 68.7 °F 62.3 °F 29.90 in Calm     80% 0.00 in WeatherDisplay:10.37 W/m2 CLR
02:20 68.6 °F 62.2 °F 29.90 in Calm     80% 0.00 in WeatherDisplay:10.37 W/m2 CLR
02:25 68.6 °F 62.2 °F 29.90 in Calm     80% 0.00 in WeatherDisplay:10.37 W/m2 CLR
02:30 68.5 °F 61.7 °F 29.90 in Calm     79% 0.00 in WeatherDisplay:10.37 W/m2 CLR
02:40 68.3 °F 61.9 °F 29.90 in Calm     80% 0.00 in WeatherDisplay:10.37 W/m2 CLR
02:45 68.2 °F 61.8 °F 29.90 in Calm     80% 0.00 in WeatherDisplay:10.37 W/m2 CLR
02:50 68.2 °F 61.8 °F 29.90 in Calm     80% 0.00 in WeatherDisplay:10.37 W/m2 CLR
02:55 68.1 °F 62.0 °F 29.90 in Calm     81% 0.00 in WeatherDisplay:10.37 W/m2 CLR
03:00 68.0 °F 61.6 °F 29.90 in Calm     80% 0.00 in WeatherDisplay:10.37 W/m2 CLR
03:05 67.9 °F 61.9 °F 29.90 in Calm     81% 0.00 in WeatherDisplay:10.37 W/m2 CLR
03:10 67.9 °F 61.8 °F 29.90 in Calm     81% 0.00 in WeatherDisplay:10.37 W/m2 CLR
03:15 67.8 °F 61.8 °F 29.90 in Calm     81% 0.00 in WeatherDisplay:10.37 W/m2 CLR
03:20 67.7 °F 61.7 °F 29.90 in Calm     81% 0.00 in WeatherDisplay:10.37 W/m2 CLR
03:25 67.6 °F 61.9 °F 29.91 in Calm     82% 0.00 in WeatherDisplay:10.37 W/m2 CLR
03:30 67.6 °F 61.9 °F 29.91 in Calm   1.0 mph 82% 0.00 in WeatherDisplay:10.37 W/m2 CLR
03:35 67.5 °F 61.8 °F 29.91 in Calm     82% 0.00 in WeatherDisplay:10.37 W/m2 CLR
03:40 67.5 °F 61.8 °F 29.91 in Calm   1.0 mph 82% 0.00 in WeatherDisplay:10.37 W/m2 CLR
03:45 67.5 °F 61.5 °F 29.91 in Calm     81% 0.00 in WeatherDisplay:10.37 W/m2 CLR
03:50 67.5 °F 61.8 °F 29.91 in Calm     82% 0.00 in WeatherDisplay:10.37 W/m2 CLR
03:55 67.4 °F 61.7 °F 29.90 in Calm     82% 0.00 in WeatherDisplay:10.37 W/m2 CLR
04:00 67.3 °F 61.6 °F 29.90 in Calm   1.0 mph 82% 0.00 in WeatherDisplay:10.37 W/m2 CLR
04:05 67.4 °F 61.7 °F 29.90 in Calm   1.0 mph 82% 0.00 in WeatherDisplay:10.37 W/m2 CLR
04:10 67.4 °F 61.7 °F 29.90 in Calm   1.0 mph 82% 0.00 in WeatherDisplay:10.37 W/m2 CLR
04:15 67.3 °F 61.6 °F 29.90 in Calm   1.0 mph 82% 0.00 in WeatherDisplay:10.37 W/m2 CLR
04:20 67.3 °F 61.6 °F 29.90 in Calm     82% 0.00 in WeatherDisplay:10.37 W/m2 CLR
04:25 67.3 °F 61.6 °F 29.90 in Calm     82% 0.00 in WeatherDisplay:10.37 W/m2 CLR
04:30 67.2 °F 61.5 °F 29.90 in Calm     82% 0.00 in WeatherDisplay:10.37 W/m2 CLR
04:40 66.9 °F 61.6 °F 29.90 in Calm     83% 0.00 in WeatherDisplay:10.37 W/m2 CLR
04:45 66.8 °F 61.5 °F 29.90 in Calm     83% 0.00 in WeatherDisplay:10.37 W/m2 CLR
04:50 66.7 °F 61.4 °F 29.90 in Calm     83% 0.00 in WeatherDisplay:10.37 W/m2 CLR
04:55 66.6 °F 61.3 °F 29.90 in Calm     83% 0.00 in WeatherDisplay:10.37 W/m2 CLR
05:00 66.5 °F 61.2 °F 29.90 in Calm     83% 0.00 in WeatherDisplay:10.37 W/m2 CLR
05:05 66.4 °F 61.4 °F 29.90 in Calm     84% 0.00 in WeatherDisplay:10.37 W/m2 CLR
05:10 66.2 °F 61.2 °F 29.90 in Calm     84% 0.00 in WeatherDisplay:10.37 W/m2 CLR
05:15 66.0 °F 61.0 °F 29.90 in Calm     84% 0.00 in WeatherDisplay:10.37 W/m2 CLR
05:20 65.8 °F 61.2 °F 29.90 in Calm     85% 0.00 in WeatherDisplay:10.37 W/m2 CLR
05:25 65.7 °F 61.1 °F 29.90 in Calm     85% 0.00 in WeatherDisplay:10.37 W/m2 CLR
05:30 65.5 °F 60.9 °F 29.90 in Calm     85% 0.00 in WeatherDisplay:10.37 W/m2 CLR
05:40 65.2 °F 60.9 °F 29.90 in Calm     86% 0.00 in WeatherDisplay:10.37 W/m2 CLR
05:45 65.1 °F 60.8 °F 29.90 in Calm     86% 0.00 in WeatherDisplay:10.37 W/m2 CLR
05:50 65.0 °F 60.7 °F 29.91 in Calm     86% 0.00 in WeatherDisplay:10.37 W/m2 CLR
05:55 64.9 °F 60.9 °F 29.91 in Calm     87% 0.00 in WeatherDisplay:10.37 W/m2 CLR
06:00 64.8 °F 60.8 °F 29.91 in Calm     87% 0.00 in WeatherDisplay:10.37 W/m2 CLR
06:05 64.7 °F 60.7 °F 29.91 in Calm     87% 0.00 in WeatherDisplay:10.37 W/m2 CLR
06:10 64.6 °F 61.0 °F 29.91 in Calm     88% 0.00 in WeatherDisplay:10.37 W/m2 CLR
06:15 64.5 °F 60.9 °F 29.91 in Calm     88% 0.00 in WeatherDisplay:10.37 W/m2 CLR
06:20 64.4 °F 60.8 °F 29.91 in Calm     88% 0.00 in WeatherDisplay:10.37 W/m2 CLR
06:25 64.3 °F 60.7 °F 29.91 in Calm     88% 0.00 in WeatherDisplay:10.37 W/m2 CLR
06:30 64.4 °F 60.8 °F 29.91 in Calm     88% 0.00 in WeatherDisplay:10.37 W/m2 CLR
06:35 64.5 °F 60.8 °F 29.91 in Calm     88% 0.00 in WeatherDisplay:10.37 W/m2 CLR
06:40 64.5 °F 60.9 °F 29.91 in Calm     88% 0.00 in WeatherDisplay:10.37 W/m2 CLR
06:45 64.5 °F 60.9 °F 29.91 in Calm     88% 0.00 in WeatherDisplay:10.37 W/m2 CLR
06:50 64.4 °F 60.8 °F 29.91 in Calm     88% 0.00 in WeatherDisplay:10.37 W/m2 CLR
06:55 64.4 °F 60.8 °F 29.91 in Calm   1.0 mph 88% 0.00 in WeatherDisplay:10.37 W/m2 CLR
07:00 64.5 °F 60.9 °F 29.91 in Calm     88% 0.00 in WeatherDisplay:10.37 W/m2 CLR
07:05 64.6 °F 60.7 °F 29.91 in Calm     87% 0.00 in WeatherDisplay:10.37 W/m2 CLR
07:10 64.6 °F 60.6 °F 29.92 in Calm     87% 0.00 in WeatherDisplay:10.37 W/m2 CLR
07:15 64.5 °F 60.6 °F 29.92 in Calm     87% 0.00 in WeatherDisplay:10.37 W/m2 CLR
07:20 64.4 °F 60.4 °F 29.92 in Calm     87% 0.00 in WeatherDisplay:10.37 W/m2 FEW
07:25 64.3 °F 60.3 °F 29.91 in Calm     87% 0.00 in WeatherDisplay:10.37 W/m2 FEW
07:30 64.3 °F 60.3 °F 29.92 in Calm     87% 0.00 in WeatherDisplay:10.37 W/m2 FEW
07:35 64.3 °F 60.3 °F 29.92 in Calm     87% 0.00 in WeatherDisplay:10.37 W/m2 FEW
07:40 64.3 °F 60.3 °F 29.91 in Calm     87% 0.00 in WeatherDisplay:10.37 W/m2 FEW
07:45 64.3 °F 60.3 °F 29.91 in Calm     87% 0.00 in WeatherDisplay:10.37 W/m2 FEW
07:50 64.4 °F 60.4 °F 29.92 in Calm     87% 0.00 in WeatherDisplay:10.37 W/m2 FEW
08:00 64.7 °F 60.7 °F 29.92 in Calm     87% 0.00 in WeatherDisplay:10.37 W/m2 FEW
08:05 65.0 °F 61.0 °F 29.92 in Calm     87% 0.00 in WeatherDisplay:10.37 W/m2 FEW
08:10 65.4 °F 61.1 °F 29.92 in Calm     86% 0.00 in WeatherDisplay:10.37 W/m2 FEW
08:15 65.7 °F 61.4 °F 29.92 in Calm   1.0 mph 86% 0.00 in WeatherDisplay:10.37 W/m2 FEW
08:20 66.1 °F 61.5 °F 29.92 in Calm   1.0 mph 85% 0.00 in WeatherDisplay:10.37 W/m2 FEW
08:30 66.7 °F 61.7 °F 29.92 in Calm   1.0 mph 84% 0.00 in WeatherDisplay:10.37 W/m2 FEW
08:35 67.0 °F 62.0 °F 29.92 in Calm   1.0 mph 84% 0.00 in WeatherDisplay:10.37 W/m2 FEW
08:40 67.2 °F 62.2 °F 29.92 in Calm     84% 0.00 in WeatherDisplay:10.37 W/m2 FEW
08:45 67.5 °F 62.2 °F 29.92 in Calm     83% 0.00 in WeatherDisplay:10.37 W/m2 FEW
08:50 67.8 °F 62.4 °F 29.93 in Calm   2.0 mph 83% 0.00 in WeatherDisplay:10.37 W/m2 FEW
08:55 68.1 °F 62.7 °F 29.93 in Calm   1.0 mph 83% 0.00 in WeatherDisplay:10.37 W/m2 FEW
09:00 68.4 °F 62.7 °F 29.93 in Calm   2.0 mph 82% 0.00 in WeatherDisplay:10.37 W/m2 FEW
09:10 68.9 °F 63.2 °F 29.93 in Calm   1.0 mph 82% 0.00 in WeatherDisplay:10.37 W/m2 FEW
09:15 69.2 °F 62.8 °F 29.93 in Calm   1.0 mph 80% 0.00 in WeatherDisplay:10.37 W/m2 FEW
09:20 69.5 °F 63.1 °F 29.93 in Calm   3.0 mph 80% 0.00 in WeatherDisplay:10.37 W/m2 FEW
09:25 69.8 °F 63.3 °F 29.93 in Calm   2.0 mph 80% 0.00 in WeatherDisplay:10.37 W/m2 FEW
09:30 70.1 °F 63.3 °F 29.93 in SW 1.0 mph 2.0 mph 79% 0.00 in WeatherDisplay:10.37 W/m2 FEW
09:35 70.3 °F 63.1 °F 29.93 in Calm   3.0 mph 78% 0.00 in WeatherDisplay:10.37 W/m2 FEW
09:40 70.6 °F 63.7 °F 29.93 in Calm   2.0 mph 79% 0.00 in WeatherDisplay:10.37 W/m2 FEW
09:45 71.0 °F 64.2 °F 29.94 in Calm   1.0 mph 79% 0.00 in WeatherDisplay:10.37 W/m2 FEW
09:50 71.6 °F 64.0 °F 29.94 in Calm   2.0 mph 77% 0.00 in WeatherDisplay:10.37 W/m2 FEW
09:55 72.2 °F 63.9 °F 29.94 in Calm   3.0 mph 75% 0.00 in WeatherDisplay:10.37 W/m2 FEW
10:00 72.9 °F 64.1 °F 29.94 in Calm   3.0 mph 74% 0.00 in WeatherDisplay:10.37 W/m2 FEW
10:10 74.2 °F 64.9 °F 29.94 in Calm   1.0 mph 73% 0.00 in WeatherDisplay:10.37 W/m2 FEW
10:15 74.8 °F 65.2 °F 29.94 in Calm   1.0 mph 72% 0.00 in WeatherDisplay:10.37 W/m2 FEW
10:20 74.9 °F 64.9 °F 29.95 in Calm   2.0 mph 71% 0.00 in WeatherDisplay:10.37 W/m2 SCT
10:25 75.0 °F 64.6 °F 29.95 in Calm   2.0 mph 70% 0.00 in WeatherDisplay:10.37 W/m2 SCT
10:30 75.2 °F 65.1 °F 29.95 in Calm   1.0 mph 71% 0.00 in WeatherDisplay:10.37 W/m2 SCT
10:35 75.4 °F 64.9 °F 29.95 in Calm   1.0 mph 70% 0.00 in WeatherDisplay:10.37 W/m2 SCT
10:40 75.6 °F 64.7 °F 29.95 in Calm   1.0 mph 69% 0.00 in WeatherDisplay:10.37 W/m2 SCT
10:45 75.7 °F 65.2 °F 29.95 in Calm   1.0 mph 70% 0.00 in WeatherDisplay:10.37 W/m2 SCT
10:50 76.1 °F 65.2 °F 29.95 in Calm   1.0 mph 69% 0.00 in WeatherDisplay:10.37 W/m2 SCT
10:55 76.4 °F 64.6 °F 29.95 in West 1.0 mph 5.0 mph 67% 0.00 in WeatherDisplay:10.37 W/m2 SCT
11:00 76.6 °F 65.2 °F 29.95 in NW 1.0 mph 2.0 mph 68% 0.00 in WeatherDisplay:10.37 W/m2 SCT
11:10 76.9 °F 65.1 °F 29.95 in East 1.0 mph 2.0 mph 67% 0.00 in WeatherDisplay:10.37 W/m2 SCT
11:20 77.1 °F 64.9 °F 29.96 in Calm   3.0 mph 66% 0.00 in WeatherDisplay:10.37 W/m2 FEW
11:25 77.4 °F 64.7 °F 29.95 in SW 1.0 mph 3.0 mph 65% 0.00 in WeatherDisplay:10.37 W/m2 FEW
11:30 77.6 °F 65.4 °F 29.95 in Calm   1.0 mph 66% 0.00 in WeatherDisplay:10.37 W/m2 FEW
11:40 78.5 °F 65.3 °F 29.95 in Calm   2.0 mph 64% 0.00 in WeatherDisplay:10.37 W/m2 FEW
11:50 78.9 °F 65.7 °F 29.95 in Calm   2.0 mph 64% 0.00 in WeatherDisplay:10.37 W/m2 FEW
11:55 79.2 °F 65.5 °F 29.96 in Calm   1.0 mph 63% 0.00 in WeatherDisplay:10.37 W/m2 FEW
12:00 79.6 °F 65.9 °F 29.96 in Calm   1.0 mph 63% 0.00 in WeatherDisplay:10.37 W/m2 FEW
12:05 79.9 °F 65.7 °F 29.96 in Calm   1.0 mph 62% 0.00 in WeatherDisplay:10.37 W/m2 FEW
12:10 80.4 °F 65.7 °F 29.96 in Calm   2.0 mph 61% 0.00 in WeatherDisplay:10.37 W/m2 FEW
12:15 80.7 °F 65.5 °F 29.96 in Calm   1.0 mph 60% 0.00 in WeatherDisplay:10.37 W/m2 FEW
12:20 80.8 °F 65.6 °F 29.95 in SE 1.0 mph 2.0 mph 60% 0.00 in WeatherDisplay:10.37 W/m2 FEW
12:25 81.8 °F 66.6 °F 29.95 in Calm   1.0 mph 60% 0.00 in WeatherDisplay:10.37 W/m2 FEW
12:30 82.3 °F 65.0 °F 29.95 in Calm   2.0 mph 56% 0.00 in WeatherDisplay:10.37 W/m2 FEW
12:35 82.4 °F 64.6 °F 29.95 in Calm   1.0 mph 55% 0.00 in WeatherDisplay:10.37 W/m2 FEW
12:40 82.6 °F 65.3 °F 29.95 in ENE 1.0 mph 3.0 mph 56% 0.00 in WeatherDisplay:10.37 W/m2 FEW
12:45 83.0 °F 65.2 °F 29.95 in Calm   2.0 mph 55% 0.00 in WeatherDisplay:10.37 W/m2 FEW
12:50 83.7 °F 65.3 °F 29.95 in Calm   1.0 mph 54% 0.00 in WeatherDisplay:10.37 W/m2 FEW
12:55 84.3 °F 65.3 °F 29.95 in WSW 1.0 mph 3.0 mph 53% 0.00 in WeatherDisplay:10.37 W/m2 FEW
13:00 84.1 °F 64.0 °F 29.95 in SE 1.0 mph 2.0 mph 51% 0.00 in WeatherDisplay:10.37 W/m2 FEW
13:05 84.4 °F 64.8 °F 29.94 in East 1.0 mph 2.0 mph 52% 0.00 in WeatherDisplay:10.37 W/m2 FEW
13:10 84.8 °F 64.1 °F 29.94 in Calm   1.0 mph 50% 0.00 in WeatherDisplay:10.37 W/m2 FEW
13:15 84.5 °F 63.8 °F 29.94 in Calm   2.0 mph 50% 0.00 in WeatherDisplay:10.37 W/m2 FEW
13:20 84.8 °F 64.7 °F 29.94 in Calm   1.0 mph 51% 0.00 in WeatherDisplay:10.37 W/m2 FEW
13:25 84.5 °F 64.9 °F 29.94 in East 1.0 mph 2.0 mph 52% 0.00 in WeatherDisplay:10.37 W/m2 FEW
13:30 84.3 °F 63.7 °F 29.94 in Calm   2.0 mph 50% 0.00 in WeatherDisplay:10.37 W/m2 FEW
13:35 85.2 °F 65.0 °F 29.94 in Calm   1.0 mph 51% 0.00 in WeatherDisplay:10.37 W/m2 FEW
13:40 85.8 °F 63.2 °F 29.94 in North 1.0 mph 2.0 mph 47% 0.00 in WeatherDisplay:10.37 W/m2 FEW
13:45 85.6 °F 63.7 °F 29.94 in Calm   1.0 mph 48% 0.00 in WeatherDisplay:10.37 W/m2 FEW
13:50 86.0 °F 64.0 °F 29.93 in Calm   2.0 mph 48% 0.00 in WeatherDisplay:10.37 W/m2 FEW
13:55 86.7 °F 63.5 °F 29.93 in Calm   1.0 mph 46% 0.00 in WeatherDisplay:10.37 W/m2 FEW
14:00 87.0 °F 63.7 °F 29.93 in Calm   1.0 mph 46% 0.00 in WeatherDisplay:10.37 W/m2 FEW
14:05 87.6 °F 63.0 °F 29.93 in Calm   1.0 mph 44% 0.00 in WeatherDisplay:10.37 W/m2 FEW
14:10 88.0 °F 63.4 °F 29.93 in East 1.0 mph 2.0 mph 44% 0.00 in WeatherDisplay:10.37 W/m2 FEW
14:15 87.9 °F 63.9 °F 29.93 in Calm   1.0 mph 45% 0.00 in WeatherDisplay:10.37 W/m2 FEW
14:20 88.0 °F 63.4 °F 29.93 in Calm   2.0 mph 44% 0.00 in WeatherDisplay:10.37 W/m2 FEW
14:25 88.0 °F 62.1 °F 29.93 in Calm   1.0 mph 42% 0.00 in WeatherDisplay:10.37 W/m2 FEW
14:30 87.9 °F 61.3 °F 29.93 in South 1.0 mph 2.0 mph 41% 0.00 in WeatherDisplay:10.37 W/m2 FEW
14:35 86.8 °F 58.8 °F 29.93 in Calm   3.0 mph 39% 0.00 in WeatherDisplay:10.37 W/m2 FEW
14:40 86.4 °F 58.5 °F 29.92 in Calm   1.0 mph 39% 0.00 in WeatherDisplay:10.37 W/m2 FEW
14:45 86.2 °F 60.4 °F 29.92 in Calm   3.0 mph 42% 0.00 in WeatherDisplay:10.37 W/m2 FEW
14:50 86.1 °F 61.0 °F 29.92 in Calm   1.0 mph 43% 0.00 in WeatherDisplay:10.37 W/m2 FEW
14:55 85.7 °F 61.3 °F 29.92 in Calm   3.0 mph 44% 0.00 in WeatherDisplay:10.37 W/m2 FEW
15:00 85.5 °F 59.8 °F 29.92 in Calm   1.0 mph 42% 0.00 in WeatherDisplay:10.37 W/m2 FEW
15:05 85.4 °F 60.4 °F 29.92 in Calm   1.0 mph 43% 0.00 in WeatherDisplay:10.37 W/m2 FEW
15:10 85.6 °F 61.2 °F 29.92 in Calm   2.0 mph 44% 0.00 in WeatherDisplay:10.37 W/m2 FEW
15:15 85.6 °F 61.2 °F 29.92 in Calm   1.0 mph 44% 0.00 in WeatherDisplay:10.37 W/m2 FEW
15:20 85.5 °F 60.4 °F 29.92 in Calm   2.0 mph 43% 0.00 in WeatherDisplay:10.37 W/m2 FEW
15:25 85.2 °F 60.2 °F 29.92 in Calm   1.0 mph 43% 0.00 in WeatherDisplay:10.37 W/m2 FEW
15:35 85.3 °F 62.8 °F 29.92 in Calm   1.0 mph 47% 0.00 in WeatherDisplay:10.37 W/m2 FEW
15:40 85.4 °F 61.0 °F 29.92 in NE 1.0 mph 2.0 mph 44% 0.00 in WeatherDisplay:10.37 W/m2 FEW
15:45 85.5 °F 61.1 °F 29.92 in NE 1.0 mph 2.0 mph 44% 0.00 in WeatherDisplay:10.37 W/m2 FEW
15:50 85.6 °F 61.8 °F 29.91 in Calm   1.0 mph 45% 0.00 in WeatherDisplay:10.37 W/m2 FEW
15:55 85.6 °F 63.1 °F 29.91 in Calm   1.0 mph 47% 0.00 in WeatherDisplay:10.37 W/m2 FEW
16:00 85.7 °F 62.5 °F 29.91 in Calm   1.0 mph 46% 0.00 in WeatherDisplay:10.37 W/m2 FEW
16:10 85.5 °F 63.0 °F 29.91 in Calm   3.0 mph 47% 0.00 in WeatherDisplay:10.37 W/m2 FEW
16:15 85.6 °F 61.2 °F 29.91 in ESE 1.0 mph 3.0 mph 44% 0.00 in WeatherDisplay:10.37 W/m2 FEW
16:20 85.3 °F 61.6 °F 29.91 in Calm   1.0 mph 45% 0.00 in WeatherDisplay:10.37 W/m2 FEW
16:25 85.2 °F 63.3 °F 29.91 in Calm   1.0 mph 48% 0.00 in WeatherDisplay:10.37 W/m2 FEW
16:30 85.1 °F 61.4 °F 29.91 in Calm     45% 0.00 in WeatherDisplay:10.37 W/m2 FEW
16:40 85.2 °F 63.3 °F 29.91 in Calm   5.0 mph 48% 0.00 in WeatherDisplay:10.37 W/m2 FEW
16:45 85.1 °F 62.0 °F 29.91 in Calm   1.0 mph 46% 0.00 in WeatherDisplay:10.37 W/m2 FEW
16:50 85.0 °F 61.9 °F 29.91 in Calm   1.0 mph 46% 0.00 in WeatherDisplay:10.37 W/m2 FEW
16:55 85.0 °F 62.5 °F 29.90 in Calm   1.0 mph 47% 0.00 in WeatherDisplay:10.37 W/m2 FEW
17:00 85.0 °F 63.1 °F 29.90 in Calm   1.0 mph 48% 0.00 in WeatherDisplay:10.37 W/m2 FEW
17:10 86.0 °F 63.4 °F 29.90 in Calm   2.0 mph 47% 0.00 in WeatherDisplay:10.37 W/m2 FEW
17:15 85.8 °F 63.8 °F 29.90 in Calm   2.0 mph 48% 0.00 in WeatherDisplay:10.37 W/m2 FEW
17:20 85.9 °F 63.3 °F 29.90 in Calm   1.0 mph 47% 0.00 in WeatherDisplay:10.37 W/m2 FEW
17:30 85.8 °F 63.9 °F 29.90 in Calm   3.0 mph 48% 0.00 in WeatherDisplay:10.37 W/m2 FEW
17:40 85.9 °F 64.5 °F 29.90 in Calm   2.0 mph 49% 0.00 in WeatherDisplay:10.37 W/m2 FEW
17:45 85.6 °F 65.4 °F 29.90 in Calm   2.0 mph 51% 0.00 in WeatherDisplay:10.37 W/m2 FEW
17:50 85.3 °F 64.0 °F 29.90 in Calm   2.0 mph 49% 0.00 in WeatherDisplay:10.37 W/m2 FEW
17:55 85.0 °F 64.8 °F 29.89 in Calm   1.0 mph 51% 0.00 in WeatherDisplay:10.37 W/m2 FEW
18:00 84.6 °F 63.9 °F 29.90 in Calm   1.0 mph 50% 0.00 in WeatherDisplay:10.37 W/m2 FEW
18:10 84.2 °F 65.2 °F 29.89 in Calm   1.0 mph 53% 0.00 in WeatherDisplay:10.37 W/m2 FEW
18:15 83.8 °F 64.3 °F 29.89 in Calm   5.0 mph 52% 0.00 in WeatherDisplay:10.37 W/m2 FEW
18:20 83.6 °F 64.7 °F 29.89 in Calm   3.0 mph 53% 0.00 in WeatherDisplay:10.37 W/m2 FEW
18:25 83.4 °F 64.5 °F 29.89 in Calm   2.0 mph 53% 0.00 in WeatherDisplay:10.37 W/m2 FEW
18:30 83.2 °F 64.8 °F 29.89 in Calm   1.0 mph 54% 0.00 in WeatherDisplay:10.37 W/m2 FEW
18:35 82.9 °F 65.1 °F 29.89 in Calm   1.0 mph 55% 0.00 in WeatherDisplay:10.37 W/m2 FEW
18:40 82.6 °F 65.3 °F 29.89 in Calm   1.0 mph 56% 0.00 in WeatherDisplay:10.37 W/m2 FEW
18:45 82.3 °F 65.0 °F 29.89 in Calm   1.0 mph 56% 0.00 in WeatherDisplay:10.37 W/m2 FEW
18:50 82.1 °F 65.4 °F 29.89 in Calm   1.0 mph 57% 0.00 in WeatherDisplay:10.37 W/m2 FEW
18:55 81.9 °F 64.7 °F 29.89 in Calm   1.0 mph 56% 0.00 in WeatherDisplay:10.37 W/m2 FEW
19:00 81.7 °F 65.0 °F 29.89 in Calm     57% 0.00 in WeatherDisplay:10.37 W/m2 FEW
19:10 81.3 °F 65.6 °F 29.89 in Calm     59% 0.00 in WeatherDisplay:10.37 W/m2 FEW
19:15 81.1 °F 64.9 °F 29.89 in Calm   1.0 mph 58% 0.00 in WeatherDisplay:10.37 W/m2 FEW
19:20 80.9 °F 65.2 °F 29.89 in Calm   1.0 mph 59% 0.00 in WeatherDisplay:10.37 W/m2 FEW
19:25 80.7 °F 64.5 °F 29.89 in Calm   1.0 mph 58% 0.00 in WeatherDisplay:10.37 W/m2 FEW
19:30 80.5 °F 63.9 °F 29.89 in Calm   1.0 mph 57% 0.00 in WeatherDisplay:10.37 W/m2 FEW
19:35 80.3 °F 64.2 °F 29.90 in Calm   1.0 mph 58% 0.00 in WeatherDisplay:10.37 W/m2 FEW
19:40 80.1 °F 63.0 °F 29.90 in Calm   1.0 mph 56% 0.00 in WeatherDisplay:10.37 W/m2 FEW
19:45 79.9 °F 62.8 °F 29.90 in Calm     56% 0.00 in WeatherDisplay:10.37 W/m2 FEW
19:50 79.6 °F 62.5 °F 29.90 in Calm   1.0 mph 56% 0.00 in WeatherDisplay:10.37 W/m2 FEW
19:55 79.4 °F 62.8 °F 29.90 in Calm     57% 0.00 in WeatherDisplay:10.37 W/m2 FEW
20:00 79.0 °F 62.5 °F 29.90 in Calm     57% 0.00 in WeatherDisplay:10.37 W/m2 FEW
20:10 78.4 °F 62.4 °F 29.90 in Calm     58% 0.00 in WeatherDisplay:10.37 W/m2 FEW
20:15 78.1 °F 62.1 °F 29.91 in Calm     58% 0.00 in WeatherDisplay:10.37 W/m2 FEW
20:20 77.9 °F 62.4 °F 29.91 in Calm     59% 0.00 in WeatherDisplay:10.37 W/m2 FEW
20:35 77.0 °F 62.5 °F 29.92 in Calm   1.0 mph 61% 0.00 in WeatherDisplay:10.37 W/m2 FEW
20:45 76.6 °F 62.1 °F 29.92 in Calm     61% 0.00 in WeatherDisplay:10.37 W/m2 FEW
20:50 76.4 °F 62.0 °F 29.92 in Calm     61% 0.00 in WeatherDisplay:10.37 W/m2 FEW
20:55 76.3 °F 61.8 °F 29.92 in Calm     61% 0.00 in WeatherDisplay:10.37 W/m2 FEW
21:00 76.1 °F 62.1 °F 29.92 in Calm     62% 0.00 in WeatherDisplay:10.37 W/m2 FEW
21:05 75.7 °F 62.3 °F 29.92 in Calm     63% 0.00 in WeatherDisplay:10.37 W/m2 FEW
21:10 75.4 °F 61.9 °F 29.92 in Calm     63% 0.00 in WeatherDisplay:10.37 W/m2 FEW
21:15 75.2 °F 61.7 °F 29.93 in Calm     63% 0.00 in WeatherDisplay:10.37 W/m2 FEW
21:20 74.9 °F 61.9 °F 29.93 in Calm     64% 0.00 in WeatherDisplay:10.37 W/m2 FEW
21:25 74.7 °F 61.3 °F 29.93 in Calm     63% 0.00 in WeatherDisplay:10.37 W/m2 FEW
21:30 74.5 °F 61.5 °F 29.93 in Calm     64% 0.00 in WeatherDisplay:10.37 W/m2 FEW
21:35 74.2 °F 61.3 °F 29.93 in Calm     64% 0.00 in WeatherDisplay:10.37 W/m2 FEW
21:40 74.1 °F 61.6 °F 29.94 in Calm     65% 0.00 in WeatherDisplay:10.37 W/m2 FEW
21:45 73.9 °F 61.4 °F 29.94 in Calm     65% 0.00 in WeatherDisplay:10.37 W/m2 FEW
21:55 73.5 °F 61.4 °F 29.94 in Calm     66% 0.00 in WeatherDisplay:10.37 W/m2 FEW
22:00 73.3 °F 61.3 °F 29.94 in Calm     66% 0.00 in WeatherDisplay:10.37 W/m2 FEW
22:05 73.1 °F 61.1 °F 29.94 in Calm     66% 0.00 in WeatherDisplay:10.37 W/m2 FEW
22:10 73.0 °F 61.0 °F 29.95 in Calm     66% 0.00 in WeatherDisplay:10.37 W/m2 FEW
22:15 72.9 °F 60.9 °F 29.95 in Calm     66% 0.00 in WeatherDisplay:10.37 W/m2 FEW
22:20 72.9 °F 60.9 °F 29.95 in Calm     66% 0.00 in WeatherDisplay:10.37 W/m2 CLR
22:25 72.8 °F 60.8 °F 29.95 in Calm     66% 0.00 in WeatherDisplay:10.37 W/m2 CLR
22:30 72.8 °F 60.8 °F 29.95 in Calm   1.0 mph 66% 0.00 in WeatherDisplay:10.37 W/m2 CLR
22:40 72.5 °F 60.9 °F 29.95 in Calm     67% 0.00 in WeatherDisplay:10.37 W/m2 CLR
22:45 72.5 °F 60.9 °F 29.96 in Calm   1.0 mph 67% 0.00 in WeatherDisplay:10.37 W/m2 CLR
22:50 72.3 °F 60.7 °F 29.96 in Calm     67% 0.00 in WeatherDisplay:10.37 W/m2 CLR
22:55 72.2 °F 61.1 °F 29.96 in Calm     68% 0.00 in WeatherDisplay:10.37 W/m2 CLR
23:00 72.2 °F 61.5 °F 29.96 in Calm     69% 0.00 in WeatherDisplay:10.37 W/m2 CLR
23:05 72.0 °F 61.3 °F 29.96 in Calm     69% 0.00 in WeatherDisplay:10.37 W/m2 CLR
23:10 71.8 °F 61.5 °F 29.96 in Calm     70% 0.00 in WeatherDisplay:10.37 W/m2 CLR
23:15 71.6 °F 61.7 °F 29.96 in Calm     71% 0.00 in WeatherDisplay:10.37 W/m2 CLR
23:20 71.3 °F 61.4 °F 29.96 in Calm     71% 0.00 in WeatherDisplay:10.37 W/m2 CLR
23:25 71.1 °F 61.2 °F 29.96 in Calm     71% 0.00 in WeatherDisplay:10.37 W/m2 CLR
23:30 70.9 °F 61.4 °F 29.97 in Calm     72% 0.00 in WeatherDisplay:10.37 W/m2 CLR
23:35 70.8 °F 61.3 °F 29.97 in Calm     72% 0.00 in WeatherDisplay:10.37 W/m2 CLR
23:40 70.6 °F 61.6 °F 29.97 in Calm     73% 0.00 in WeatherDisplay:10.37 W/m2 CLR
23:45 70.5 °F 61.4 °F 29.97 in Calm     73% 0.00 in WeatherDisplay:10.37 W/m2 CLR
23:50 70.3 °F 61.2 °F 29.97 in Calm     73% 0.00 in WeatherDisplay:10.37 W/m2 CLR
23:55 70.1 °F 61.1 °F 29.97 in Calm     73% 0.00 in WeatherDisplay:10.37 W/m2 CLR
Piedmont Bend
Compliments of Weather Underground - 4 mb